Location: Casilda
(33.0440°S, 61.1680°W)
Time: 10:15:02
(UTC-03:00)

ISS - Pass Details

Date: 17 October 2019
Orbit: 411 x 421 km, 51.6° (Epoch: 18 October)

Event Time Altitude Azimuth Distance (km) Brightness Sun altitude
Rises 20:24:18 0° 328° (NNW) 2,338 0.2 -14.0°
Reaches altitude 10° 20:26:25 10° 334° (NNW) 1,485 -0.9 -14.4°
Maximum altitude 20:29:38 46° 48° (NE) 573 -3.5 -15.0°
Enters shadow 20:30:59 28° 104° (ESE) 817 -2.7 -15.3°
